STARONE D2

导读 | 豆包AI

STAR ONE D2是一颗由巴西运营的对地静止通信卫星,于北京时间2021年7月30日在法属圭亚那库鲁的欧洲航天发射场发射升空,卫星标识编号为NORAD ID 49055、COSPAR ID 2021-069A。该卫星目前在轨正常运行,轨道倾角仅约0.016°,偏心率约0.00026,轨道高度稳定,主要服务于南美区域通信覆盖,助力巴西及周边地区卫星通信服务拓展与基础设施升级。

Basic Information
目录编号:
49055
目录名称:
STARONE D2
国际标识:
2021-069A
轨道中心:
EARTH
卫星名称:
STARONE D2
卫星全名:
--
卫星状态:
在轨 (已飞行1736 天)
发射日期:
2021-07-30 UTC
国别 :
巴西 (BR)
星等 :
--
Orbit Information
数据来源 国际轨道数据 AOE轨道数据
星历时间 2026-04-30T17:38:29+0800
1天前
查看轨道信息
2026-04-29T12:00:00+0800
2天前
查看轨道信息
半长轴 42165.205km 42164.756km
偏心率 0.0001107 0.0001025
轨道倾角 0.023° 0.028°
近地点辐角 296.397° 287.620°
升交点赤经 129.469° 123.383°
平近点角 227.115° 156.148°
近地点 35782.4km 35782.297km
远地点 35791.736km 35790.941km
周期 1436.121分钟 1436.098分钟
每日圈数 1.002701 1.002717
Detailed Information
使用方式:
暂无
2D Orbit Map
3D Orbit Map
Orbit Altitude Analysis Chart
Orbit Inclination Analysis Chart
Orbit Comprehensive Analysis Chart
View Comprehensive Chart